Location: Unspecified
(0.0000°N, 0.0000°E)
Time: 17:40:55
(UTC+00:00)

deb Delta 126 - Pass Details

Date: 20 February 2026
Orbit: 1485 x 1545 km, 102.1° (Epoch: 6 March)

Event Time Altitude Azimuth Distance (km) Brightness Sun altitude
Rises 02:36:28 0° 31° (NNE) 4,658 ? -52.9°
Enters shadow 02:37:47 - 33° (NNE) 4,222 ? -52.6°
Exits shadow 02:53:47 17° 171° (S) 3,112 ? -48.8°
Drops below altitude 10° 02:55:29 10° 176° (S) 3,641 ? -48.4°
Sets 02:58:26 0° 182° (S) 4,618 ? -47.7°
